Location: Boiro
(42.6475°N, 8.8834°W)
Time: 05:54:46
(UTC+01:00)

Transit 4A - Pass Details

Date: 02 December 2021
Orbit: 864 x 980 km, 66.8° (Epoch: 17 January)

Event Time Altitude Azimuth Distance (km) Brightness Sun altitude
Exits shadow 05:45:01 52° 33° (NNE) 1,187 8.5 -32.8°
Maximum altitude 05:45:38 54° 54° (NE) 1,163 8.5 -32.7°
Drops below altitude 10° 05:51:51 10° 131° (SE) 2,718 10.9 -31.5°
Sets 05:54:30 0° 136° (SE) 3,668 11.6 -31.1°
